RH
20 17 16 17 18 18 18 19 19 20 20 20 20 19 20 20 20 20 20 20 20 20 20 20 19 19 26 23 33 63 45 47 30
26 23 23 23 23 23 23 24 24 24 24 24 24 23 23 23 23 23 23 23 23 22 23 22 22 22 23 24 24 26 42 69 83
40 40 37 34 31 30 28 27 27 26 26 26 26 26 26 26 26 25 24 23 23 23 22 22 22 22 24 24 24 24 24 28 51
40 38 39 40 40 41 41 40 39 37 34 32 30 28 27 26 25 24 24 24 24 24 24 25 26 25 25 24 24 24 24 26 26
42 43 44 44 44 43 43 43 43 44 44 43 40 36 32 29 27 26 25 25 26 25 25 24 23 21 18 16 11 8 8 10 13
45 46 46 46 47 47 48 47 46 46 47 47 47 46 43 38 32 28 26 25 23 21 20 19 17 14 12 10 8 8 7 7 7
44 45 47 47 48 48 48 49 49 49 48 47 47 48 48 46 40 36 31 26 24 21 17 15 13 11 9 9 9 9 9 9 9
42 44 45 46 47 48 48 49 50 50 51 50 50 49 48 49 47 44 39 32 28 26 21 15 12 11 11 10 11 11 12 13 14
46 46 46 47 48 48 48 49 50 51 52 52 52 52 51 50 50 48 44 36 32 30 27 23 17 14 14 15 15 16 17 18 18
49 48 47 46 48 48 48 49 50 52 54 54 54 53 54 52 52 50 46 40 33 32 30 27 25 23 20 18 17 17 17 18 19
48 50 49 48 48 49 49 50 51 52 55 57 55 55 56 55 52 49 47 42 35 34 34 34 34 34 35 35 36 35 35 35 34
50 50 50 50 49 49 50 52 52 53 54 58 57 57 57 56 52 50 47 43 36 37 38 38 38 39 39 40 41 41 41 41 40
56 52 51 52 52 51 52 56 54 57 57 59 59 60 59 55 51 52 50 45 38 39 41 41 41 40 40 40 41 42 43 44 43
54 57 56 55 54 55 57 60 58 62 60 60 60 62 57 54 51 53 52 47 41 39 43 44 44 43 42 43 43 44 44 45 45
51 52 56 54 52 57 60 63 63 69 62 60 63 60 53 52 53 55 55 50 44 41 44 46 46 46 45 45 45 46 47 48 47
54 53 52 51 52 59 63 63 64 65 60 64 63 57 53 49 51 56 56 53 47 44 45 48 49 49 48 48 48 48 49 49 50
63 61 56 56 55 60 63 61 63 62 64 66 60 54 51 46 53 59 58 56 52 47 47 49 51 52 52 52 51 51 51 50 50
56 59 57 62 64 60 64 62 64 69 72 67 62 55 51 51 59 63 63 60 56 52 50 51 53 55 56 56 56 56 55 54 53
62 55 63 67 64 61 65 66 68 69 66 68 62 59 57 58 59 66 67 65 61 58 56 55 56 56 59 59 58 58 58 57 56
74 70 63 66 66 68 68 71 69 69 71 71 69 70 72 68 68 71 75 74 70 67 64 61 60 59 59 59 59 60 59 60 60
Wind_Speed
10 10 10 9 9 8 9 8 7 7 6 5 4 3 3 2 2 2 2 3 5 5 6 6 7 7 6 6 5 4 4 5 4
10 11 10 10 10 9 9 8 8 7 6 6 5 4 3 3 3 4 5 6 7 8 8 9 8 9 8 8 9 7 3 3 2
8 9 10 11 11 11 10 9 8 7 7 6 5 4 3 4 4 5 5 7 8 9 10 9 10 11 10 11 11 11 10 8 6
5 6 7 7 7 8 7 7 7 7 7 6 6 6 5 5 5 6 7 7 9 10 10 10 10 11 11 11 12 12 13 12 12
1 3 3 3 3 3 4 4 5 5 5 6 6 6 6 6 7 7 8 8 9 10 10 9 9 10 11 11 11 13 13 14 14
6 4 3 3 2 2 0 1 2 3 4 5 6 7 8 8 8 8 9 9 10 10 10 9 9 9 9 9 9 9 9 9 10
9 9 8 7 7 7 6 5 5 4 4 5 6 8 10 10 10 10 10 10 11 11 10 9 9 8 7 7 7 7 7 7 8
11 12 12 12 12 11 11 11 10 9 9 8 8 9 11 12 13 13 13 12 11 11 10 10 9 8 8 7 7 6 7 7 7
17 16 16 16 16 15 15 15 14 13 13 13 12 12 12 13 14 14 14 13 12 11 10 9 8 8 7 7 7 7 8 8 9
22 22 21 19 20 20 19 18 17 17 16 16 15 14 14 15 16 16 16 14 12 11 9 8 8 7 7 7 7 8 9 10 11
27 27 26 24 23 23 22 21 22 20 20 19 18 16 16 17 18 18 16 14 13 11 10 8 7 6 6 6 7 8 9 10 11
30 30 29 28 28 27 25 25 25 24 23 22 21 19 19 20 20 19 17 15 13 11 11 9 8 7 7 7 8 9 10 12 13
32 32 32 32 31 30 28 29 27 26 26 25 23 21 21 22 22 21 19 17 15 14 13 12 11 10 10 10 10 11 12 13 14
32 33 34 34 34 32 31 31 30 29 28 26 25 24 24 24 24 22 21 18 17 16 16 15 14 14 13 13 13 13 14 15 15
35 34 35 35 36 35 33 32 31 31 29 27 27 26 26 26 25 24 23 21 20 19 19 19 18 18 17 17 17 17 18 18 19
37 36 37 36 34 34 33 33 32 31 30 29 29 28 28 27 26 25 25 23 22 22 23 22 22 22 21 21 20 20 21 22 23
35 35 35 36 35 34 35 33 30 30 30 31 31 31 30 29 27 27 26 26 25 25 26 26 26 25 26 25 25 24 25 27 27
37 38 38 37 36 37 37 35 33 32 32 33 34 33 32 29 29 28 28 28 28 28 29 30 29 29 30 30 30 29 30 30 31
44 43 42 40 38 38 38 38 35 36 35 35 35 34 33 32 31 30 30 30 30 30 31 32 33 33 34 35 35 34 34 34 35
49 49 48 46 43 40 40 40 40 41 40 36 34 33 32 31 33 32 29 30 31 31 33 35 36 37 38 39 40 39 38 38 38
Wind_Direction
80 88 94 99 97 100 98 98 96 95 93 90 92 91 76 39 5 339 315 302 302 306 308 307 315 313 309 304 297 313 283 281 276
75 83 87 92 97 96 96 96 91 88 86 84 74 58 41 26 357 339 327 318 313 311 307 310 312 299 301 299 300 301 307 27 302
67 76 83 87 90 90 90 88 87 84 77 73 67 53 28 7 350 336 322 315 313 309 309 311 307 300 297 291 289 285 281 266 248
54 73 72 75 84 85 82 79 73 68 62 54 48 40 22 9 352 336 328 319 313 310 314 315 304 293 288 285 281 280 277 271 261
32 24 37 51 72 68 68 63 59 52 44 33 23 18 10 358 348 339 332 325 316 314 315 311 302 296 293 292 287 279 275 271 269
244 244 261 286 245 232 269 345 356 4 2 356 352 350 348 343 337 335 330 327 323 319 318 312 303 300 294 291 287 282 283 281 275
256 252 249 250 250 258 264 269 276 283 295 313 320 327 326 324 324 328 330 328 323 321 321 316 312 304 300 295 294 295 290 287 289
245 253 253 252 255 257 262 267 271 275 280 285 293 306 312 312 314 318 319 321 317 318 318 318 315 313 306 302 297 292 291 290 285
247 248 253 256 256 257 259 264 270 274 278 281 283 289 302 303 304 308 308 311 310 309 308 306 306 301 301 299 297 294 290 285 284
246 250 251 255 259 258 258 262 265 269 274 277 279 283 290 297 297 300 300 299 298 298 299 302 303 305 306 304 302 301 299 297 295
244 246 250 253 256 259 259 262 264 266 270 274 276 279 283 292 293 294 292 291 292 292 290 291 296 302 304 307 311 312 310 308 306
245 246 248 251 255 257 260 262 262 265 266 269 271 274 280 289 290 288 285 282 279 276 275 277 279 280 285 293 304 309 310 308 307
249 248 248 251 254 255 258 262 261 263 264 265 267 271 279 284 285 284 280 276 273 268 269 267 268 275 282 290 297 301 303 304 305
253 251 250 252 254 255 256 259 260 261 261 262 265 270 278 280 281 280 275 271 268 267 266 267 270 273 277 284 292 297 299 298 298
256 253 252 254 255 255 256 258 259 260 258 259 263 269 273 276 277 275 272 269 265 262 261 264 269 274 278 283 288 293 296 297 300
254 254 255 257 258 257 254 253 256 257 257 259 265 269 269 273 275 273 270 267 263 262 261 263 266 270 274 278 281 287 291 294 297
253 255 257 260 260 256 254 255 255 255 257 262 266 264 268 271 272 271 269 266 263 261 261 264 266 269 273 276 279 282 285 290 295
256 257 261 261 260 261 259 258 256 256 259 263 261 263 267 270 269 269 267 265 263 261 262 264 266 269 272 274 276 279 282 286 290
261 258 259 262 261 263 261 257 257 260 260 261 263 263 265 266 267 268 269 267 265 264 264 265 266 268 270 272 274 276 280 284 287
253 258 257 257 258 258 257 257 258 260 260 259 260 259 263 264 268 270 270 270 267 266 266 267 268 271 272 274 276 278 281 283 286